Back to catalog

STARLINK-34636

AliveCommunicationsVLEO
NORAD 64915·PAYLOAD·🇺🇸 United States

Launched Jul 26, 2025 from Cape Canaveral Space Force Station

Loading…

Next Passes (next 24 hours)

TLE

FreshSource: CelesTrak SupGP

Epoch: Sep 15, 2026, 02:59 UTC

1 64915C 25157M   26258.12479167 -.00102050  00000+0 -30149-2 0  2581
2 64915  53.1576 182.6112 0001379  84.9241 200.5943 15.34442760    13

Track STARLINK-34636 in real time with AllMySat

Download on the App Store